Temperature
1 1 1 1 1 1 1 1 1 2 1 1 1 1 1 1 1 1 1 1 1 1 0 0 0 0 -0 -0 -0 -0 -0 -0 -1 -1 -1 -1 -0 -0 -0 -0 -0 0 0
0 0 0 0 0 1 1 1 1 1 1 1 1 1 0 0 0 0 0 0 0 0 0 -0 -0 -0 -1 -1 -1 -1 -1 -1 -1 -1 -1 -1 -1 -1 -1 -1 -1 -1 -1
-0 -0 -0 -0 -0 -0 0 0 0 0 0 0 0 -0 -0 -0 -0 -0 -0 -0 -0 -0 -1 -1 -1 -1 -1 -1 -1 -1 -1 -1 -1 -2 -2 -2 -2 -2 -2 -2 -2 -2 -2
-1 -1 -1 -1 -1 -1 -1 -1 -0 -0 -0 -0 -0 -1 -1 -1 -1 -1 -1 -1 -1 -1 -1 -1 -1 -2 -2 -2 -2 -2 -2 -2 -2 -2 -2 -2 -2 -2 -2 -2 -2 -2 -2
-1 -1 -1 -1 -1 -1 -1 -1 -1 -1 -1 -1 -1 -1 -1 -1 -1 -1 -2 -2 -2 -2 -2 -2 -2 -2 -2 -2 -2 -2 -3 -3 -3 -3 -3 -3 -3 -3 -3 -3 -3 -3 -3
-2 -2 -2 -2 -2 -2 -2 -2 -2 -2 -2 -2 -2 -2 -2 -2 -2 -2 -2 -2 -2 -2 -3 -3 -3 -3 -3 -3 -3 -3 -3 -3 -3 -3 -3 -3 -3 -3 -3 -4 -4 -4 -4
-3 -3 -3 -3 -2 -2 -2 -2 -2 -2 -2 -2 -2 -2 -2 -3 -3 -3 -3 -3 -3 -3 -3 -3 -3 -3 -3 -3 -4 -4 -4 -4 -4 -4 -4 -4 -4 -4 -4 -4 -4 -4 -5
-3 -3 -3 -3 -3 -3 -3 -3 -3 -3 -3 -3 -3 -3 -3 -3 -3 -3 -4 -4 -4 -4 -4 -4 -4 -4 -4 -4 -4 -4 -4 -4 -4 -4 -4 -4 -5 -5 -5 -5 -5 -5 -5
-4 -4 -4 -4 -4 -3 -4 -4 -4 -4 -4 -4 -4 -4 -4 -4 -4 -4 -4 -4 -5 -4 -4 -4 -4 -4 -4 -4 -5 -5 -5 -5 -5 -5 -5 -5 -5 -5 -5 -5 -5 -6 -6
-5 -5 -4 -4 -4 -4 -4 -4 -4 -4 -4 -4 -4 -4 -5 -5 -5 -5 -5 -5 -5 -5 -5 -5 -5 -5 -5 -5 -5 -5 -5 -5 -5 -5 -5 -5 -5 -5 -6 -6 -6 -6 -6
-6 -5 -5 -5 -5 -5 -5 -5 -5 -5 -5 -5 -5 -5 -5 -5 -5 -5 -6 -6 -6 -6 -6 -6 -6 -5 -5 -6 -6 -6 -6 -6 -6 -6 -6 -6 -6 -6 -6 -6 -6 -7 -7
-6 -6 -6 -6 -6 -6 -6 -6 -6 -6 -6 -6 -6 -6 -6 -6 -6 -6 -7 -7 -7 -7 -6 -6 -6 -6 -6 -6 -6 -6 -6 -6 -6 -6 -7 -7 -7 -7 -7 -7 -7 -7 -7
-7 -7 -7 -7 -7 -7 -7 -7 -7 -7 -7 -7 -7 -7 -7 -7 -7 -7 -7 -7 -7 -7 -7 -7 -7 -7 -7 -7 -7 -7 -7 -7 -7 -7 -7 -7 -7 -7 -8 -8 -8 -8 -7
-8 -8 -8 -8 -8 -8 -8 -8 -8 -8 -8 -8 -8 -8 -8 -8 -8 -8 -8 -8 -8 -8 -8 -8 -8 -7 -7 -8 -8 -7 -8 -8 -8 -8 -8 -8 -8 -8 -8 -8 -8 -8 -8
-8 -8 -8 -8 -8 -8 -8 -8 -8 -8 -8 -8 -8 -9 -9 -9 -8 -8 -8 -9 -9 -9 -8 -8 -8 -8 -8 -8 -8 -8 -8 -8 -8 -8 -8 -9 -9 -9 -9 -9 -9 -9 -9
-9 -9 -9 -9 -9 -9 -9 -9 -9 -9 -9 -9 -9 -9 -9 -9 -9 -9 -9 -9 -9 -9 -9 -9 -9 -9 -9 -9 -9 -9 -9 -9 -9 -9 -9 -9 -9 -10 -10 -10 -10 -10 -10
-9 -10 -10 -10 -10 -10 -10 -10 -10 -10 -10 -10 -10 -10 -10 -9 -9 -9 -9 -9 -10 -10 -10 -10 -10 -10 -10 -10 -10 -10 -10 -10 -10 -10 -10 -10 -10 -10 -10 -10 -10 -10 -10
-10 -10 -10 -10 -10 -10 -10 -10 -10 -10 -10 -10 -10 -10 -10 -10 -10 -10 -10 -10 -10 -10 -10 -10 -10 -10 -10 -10 -10 -10 -10 -10 -10 -10 -10 -10 -11 -11 -11 -11 -11 -11 -11
-11 -11 -11 -11 -11 -11 -11 -11 -11 -11 -11 -11 -11 -11 -11 -11 -11 -11 -10 -11 -11 -11 -11 -11 -11 -11 -11 -11 -11 -11 -11 -11 -11 -11 -11 -11 -11 -11 -11 -11 -12 -12 -12
-11 -11 -11 -11 -11 -11 -11 -11 -12 -12 -12 -11 -11 -11 -11 -11 -11 -11 -11 -11 -11 -11 -11 -11 -11 -11 -11 -11 -11 -11 -11 -11 -11 -11 -11 -11 -12 -12 -12 -12 -12 -12 -12
-12 -12 -12 -12 -12 -12 -12 -12 -12 -12 -12 -12 -12 -12 -12 -12 -12 -12 -12 -12 -12 -12 -12 -12 -12 -12 -12 -12 -12 -12 -12 -12 -12 -12 -12 -12 -12 -12 -12 -12 -13 -13 -13
-12 -12 -12 -12 -12 -12 -12 -12 -12 -12 -12 -12 -12 -12 -12 -12 -12 -12 -12 -12 -12 -12 -12 -12 -12 -12 -12 -12 -12 -12 -12 -12 -12 -12 -12 -12 -12 -12 -13 -13 -13 -13 -13
-13 -13 -13 -13 -13 -13 -13 -13 -13 -13 -13 -13 -13 -13 -12 -12 -12 -12 -12 -12 -12 -12 -12 -12 -12 -12 -12 -12 -12 -12 -12 -12 -12 -12 -12 -13 -13 -13 -13 -13 -13 -13 -13
-13 -13 -13 -13 -13 -13 -13 -13 -13 -13 -13 -13 -13 -13 -13 -13 -13 -13 -13 -13 -13 -13 -13 -13 -13 -13 -13 -13 -13 -13 -13 -12 -12 -12 -13 -13 -13 -13 -13 -13 -13 -13 -13
-13 -13 -14 -14 -14 -14 -14 -14 -14 -14 -14 -14 -14 -14 -14 -13 -13 -13 -13 -13 -13 -13 -13 -13 -13 -13 -13 -13 -13 -13 -13 -13 -13 -13 -13 -13 -13 -13 -13 -14 -14 -14 -14
-14 -14 -14 -14 -14 -14 -14 -14 -14 -14 -14 -14 -14 -14 -14 -14 -14 -14 -14 -13 -13 -13 -13 -13 -13 -13 -13 -13 -13 -13 -13 -13 -13 -13 -13 -13 -14 -14 -14 -14 -14 -14 -14
Wind_Speed
5 6 6 6 6 6 6 6 6 6 6 6 6 7 6 7 7 7 6 7 7 6 6 6 6 5 4 4 4 4 3 3 4 3 2 2 3 3 3 4 3 3 3
5 5 6 6 6 6 6 5 6 6 6 6 6 6 6 6 7 7 7 7 7 7 7 7 7 5 6 5 4 4 4 4 4 4 3 3 4 4 4 4 4 4 4
4 5 6 6 6 6 6 5 5 6 6 6 6 6 6 6 7 7 7 7 7 7 8 8 7 7 7 5 5 5 4 4 4 4 4 3 3 3 3 3 4 4 5
4 4 5 6 6 6 6 5 5 6 6 7 7 6 6 6 6 7 6 6 7 7 7 7 7 7 7 7 5 6 5 4 4 4 4 3 3 3 3 3 3 3 4
4 4 5 4 5 5 5 5 5 5 5 6 6 6 6 6 6 6 6 6 7 6 6 6 7 7 7 6 5 5 5 5 4 4 4 4 4 3 3 3 4 4 4
3 3 3 4 4 5 5 5 5 5 5 5 6 6 6 5 7 7 6 5 6 7 6 6 6 6 7 8 8 7 7 6 6 5 5 5 6 5 4 4 4 4 4
2 2 2 3 4 4 5 5 5 5 5 5 5 6 6 6 8 8 7 5 6 6 6 6 5 5 6 6 7 7 7 7 7 6 6 7 6 6 5 5 5 5 6
2 2 2 2 3 3 4 5 5 4 4 4 4 5 5 5 7 7 7 5 5 5 6 6 6 6 6 6 6 6 6 6 7 6 6 6 5 5 6 6 6 6 5
1 1 1 2 2 3 4 4 4 4 4 4 4 4 4 5 7 7 6 4 4 5 4 5 6 6 8 8 7 6 6 6 6 7 6 6 6 6 6 4 4 4 5
0 0 0 1 2 2 3 3 3 3 3 3 2 3 3 4 5 6 5 3 4 4 4 4 6 7 8 9 7 7 7 6 5 4 4 5 5 6 6 6 5 5 4
1 1 0 0 1 1 1 1 2 2 2 2 2 2 3 3 5 6 5 3 4 3 3 3 4 7 8 9 8 6 7 5 4 4 4 4 4 4 4 5 5 5 5
1 1 1 1 0 1 1 1 2 2 3 3 2 2 2 2 3 5 5 5 4 3 3 3 4 5 6 7 6 6 6 5 4 4 4 4 4 3 3 4 5 6 6
2 1 1 1 1 1 1 1 2 2 2 2 2 2 2 2 3 4 5 5 5 3 3 4 4 5 5 5 5 6 5 4 4 4 4 4 3 3 3 3 4 4 5
1 1 1 1 1 1 0 0 1 2 2 2 2 2 2 2 2 2 3 3 4 3 2 3 4 4 3 3 3 4 3 3 4 4 4 3 3 3 3 3 3 3 4
1 1 1 1 1 1 1 1 1 1 2 2 2 2 3 3 3 4 3 2 2 2 2 2 2 2 2 2 2 2 2 3 3 3 3 3 3 3 3 3 3 3 4
1 1 0 0 0 0 0 1 2 1 1 2 2 2 2 2 3 4 4 3 3 3 2 2 3 3 3 3 3 2 3 3 3 3 3 3 3 3 3 3 3 4 4
1 1 1 0 0 0 0 0 1 1 1 1 1 1 2 2 2 3 3 3 4 4 2 2 3 3 3 3 3 3 3 3 3 3 3 3 3 3 3 4 4 4 5
1 1 1 1 1 1 1 1 1 1 1 1 1 1 1 1 2 2 2 2 2 2 2 2 2 2 3 3 3 3 3 3 3 3 3 3 3 4 4 4 4 5 5
1 1 1 1 1 1 1 1 1 1 1 1 1 1 1 1 1 1 2 1 2 2 2 2 2 2 3 3 3 3 3 3 3 3 4 4 4 4 4 5 5 6 6
1 1 2 1 1 1 1 1 1 1 1 1 1 1 1 1 1 2 2 1 2 2 2 2 3 3 3 3 3 4 4 4 4 4 4 4 4 4 5 6 5 5 5
1 1 2 1 1 1 1 1 1 2 2 2 2 2 3 2 2 2 2 2 3 3 3 3 3 3 4 4 4 4 5 5 4 4 4 5 4 5 5 5 5 6 6
1 1 1 1 1 1 2 2 2 2 2 2 2 3 3 2 2 2 3 3 3 3 3 3 3 4 4 4 4 5 5 5 5 5 5 5 4 5 5 5 5 5 5
1 1 2 2 1 2 2 2 2 2 2 3 3 3 3 2 2 3 3 3 3 3 3 4 4 4 5 5 6 6 6 6 6 6 5 5 5 5 5 5 6 6 6
2 2 2 2 2 2 2 2 2 3 3 3 3 3 3 3 3 3 3 3 3 4 4 4 5 6 6 6 6 7 8 8 7 7 7 6 6 5 5 6 6 7 7
1 2 2 2 2 2 3 3 3 3 3 3 3 3 3 4 4 4 4 4 4 4 5 5 6 6 7 8 8 8 9 10 9 8 8 7 6 6 6 7 6 7 7
2 2 2 3 3 3 3 3 3 3 3 4 4 4 4 4 4 4 4 4 4 4 5 6 7 8 9 8 9 10 10 11 11 10 8 6 6 6 6 6 7 7 7
Wind_Direction
199 201 197 199 196 193 194 196 193 188 186 186 189 190 194 193 193 196 198 195 199 201 202 206 209 209 211 213 213 221 229 235 234 251 242 230 244 256 264 267 273 276 286
198 199 198 197 192 191 194 194 192 189 187 186 187 190 194 196 194 194 196 198 201 203 203 205 208 207 210 212 211 218 226 237 230 235 239 232 244 248 259 264 270 272 278
196 193 197 197 196 197 197 192 191 190 186 186 189 192 196 198 198 199 197 200 204 205 203 205 207 206 210 211 210 217 222 228 226 225 234 237 244 244 260 266 269 270 278
196 195 199 202 201 200 197 192 191 191 190 190 194 197 198 199 201 200 199 202 202 203 204 205 208 211 214 212 213 217 217 222 214 215 226 231 240 251 254 259 268 271 278
198 201 206 207 202 197 194 191 190 191 193 192 193 197 199 200 200 200 201 202 198 197 201 208 212 215 218 216 216 215 213 220 214 216 223 231 233 239 246 254 263 276 280
200 205 207 201 198 194 190 186 186 188 190 192 194 195 200 205 202 201 202 202 196 195 200 207 209 210 212 218 222 224 223 223 219 221 229 232 238 242 242 248 258 272 277
193 197 196 195 194 194 189 182 187 190 191 197 200 197 204 205 201 199 200 202 200 200 202 204 210 210 209 213 219 227 232 239 235 229 232 237 243 240 237 243 250 262 270
178 183 186 187 196 192 186 185 187 188 192 198 202 202 203 204 199 198 195 201 204 204 207 209 210 211 208 208 213 221 231 239 237 235 238 243 245 241 237 244 253 263 278
169 190 186 184 188 188 185 186 186 188 194 199 199 201 203 203 197 194 183 194 205 209 213 213 212 215 210 209 215 223 233 240 239 238 245 250 252 251 247 239 238 243 263
304 280 235 190 184 188 193 187 184 186 192 188 191 203 205 205 198 192 185 194 206 214 219 224 225 221 212 212 218 222 226 233 233 229 234 238 240 239 237 233 236 242 257
359 28 37 153 180 165 156 166 164 167 169 176 190 203 206 206 200 195 193 202 207 214 219 226 228 221 218 220 229 231 231 231 228 224 231 236 238 235 237 241 243 242 244
53 52 35 31 80 132 132 141 149 159 167 176 184 190 199 204 211 206 209 214 216 222 227 231 227 222 226 231 236 234 228 223 218 218 226 234 238 245 253 257 258 258 257
61 52 41 34 50 101 145 151 152 169 181 186 190 191 199 212 215 214 213 215 220 231 233 230 230 227 234 238 237 232 222 222 215 217 227 236 244 251 257 267 271 267 268
56 39 38 53 57 64 84 160 174 190 198 198 201 202 205 208 209 210 209 214 219 227 224 218 222 229 240 242 234 228 228 227 221 223 232 238 244 248 255 262 269 269 270
50 37 36 46 67 52 29 350 264 240 235 224 222 215 211 219 224 223 219 217 222 223 208 215 222 225 226 227 229 227 226 223 228 232 230 233 241 247 257 266 267 266 265
44 19 16 26 25 44 47 13 11 304 303 274 258 252 256 251 226 216 219 220 221 200 192 204 216 223 226 226 226 232 234 237 238 238 236 234 237 244 254 262 261 259 263
329 322 330 330 319 291 269 271 319 0 12 305 254 241 236 220 206 205 199 196 199 193 204 208 218 228 236 239 240 239 243 246 242 238 239 238 241 248 254 258 259 262 265
326 317 300 296 287 278 267 274 274 269 283 298 317 298 239 209 196 186 174 177 198 203 213 217 227 236 241 242 246 248 246 244 241 240 242 243 242 246 252 255 257 260 264
317 308 296 284 274 267 268 269 269 261 264 277 294 298 298 255 224 190 174 203 205 213 225 237 243 244 246 248 249 252 249 246 245 244 244 244 243 243 249 253 257 261 263
309 311 295 277 267 267 267 265 261 254 255 259 264 284 287 267 241 224 223 229 227 231 238 245 249 249 249 250 249 249 249 247 244 243 244 245 244 244 248 252 256 260 261
303 304 306 290 278 273 271 270 264 256 259 268 276 284 279 265 253 248 243 242 244 246 248 250 251 250 250 250 247 248 249 248 245 243 243 245 245 247 250 253 255 257 261
304 300 304 288 277 274 269 266 263 265 264 268 279 283 280 267 254 250 250 256 262 260 254 250 252 250 248 246 245 248 248 247 246 242 242 242 243 247 249 251 253 256 258
300 297 296 290 274 276 276 269 263 264 266 267 270 273 274 269 261 258 262 268 268 264 260 254 254 255 256 252 249 246 246 245 244 241 240 242 243 246 247 248 250 255 257
301 294 291 293 286 272 269 270 269 267 269 270 271 269 266 265 265 264 265 265 264 264 263 259 256 256 260 259 256 252 248 246 244 241 239 240 243 247 248 250 253 253 255
307 303 296 291 287 281 274 272 272 271 271 270 271 271 269 267 266 266 266 264 263 263 264 263 259 258 258 259 258 257 254 252 252 247 242 239 241 243 246 249 251 255 255
294 291 289 286 283 281 276 273 272 273 271 271 270 270 268 266 265 266 266 263 262 264 266 265 262 262 263 263 263 262 260 257 256 255 248 240 240 243 243 247 250 251 254
Height
1461 1463 1465 1467 1469 1471 1473 1476 1478 1480 1482 1484 1486 1488 1489 1491 1492 1494 1496 1497 1498 1500 1501 1503 1504 1506 1507 1508 1509 1510 1511 1512 1511 1512 1512 1512 1512 1512 1512 1512 1512 1511 1511
1458 1460 1462 1463 1465 1467 1469 1471 1473 1475 1477 1479 1481 1483 1484 1486 1487 1489 1490 1492 1493 1494 1496 1498 1499 1501 1502 1503 1504 1505 1506 1507 1507 1507 1507 1508 1508 1508 1508 1508 1507 1507 1507
1454 1456 1458 1460 1461 1463 1465 1467 1469 1471 1473 1475 1476 1478 1480 1481 1483 1484 1485 1487 1488 1490 1491 1493 1495 1496 1497 1498 1499 1500 1502 1502 1502 1503 1503 1503 1503 1504 1504 1504 1503 1502 1502
1451 1452 1454 1456 1457 1459 1461 1463 1464 1466 1468 1470 1472 1474 1475 1477 1478 1479 1481 1482 1483 1485 1486 1488 1490 1491 1492 1493 1494 1495 1496 1497 1498 1498 1498 1499 1499 1499 1500 1499 1499 1499 1498
1447 1448 1450 1452 1454 1455 1457 1458 1460 1462 1464 1466 1467 1469 1471 1472 1473 1475 1476 1477 1478 1480 1482 1483 1485 1486 1488 1489 1490 1491 1492 1493 1493 1493 1494 1494 1495 1495 1495 1495 1494 1494 1493
1444 1445 1447 1448 1450 1451 1453 1455 1456 1458 1459 1461 1463 1464 1466 1467 1469 1471 1472 1472 1474 1475 1477 1478 1480 1481 1482 1484 1485 1486 1487 1488 1488 1489 1489 1489 1490 1491 1491 1490 1490 1489 1488
1441 1442 1443 1444 1446 1448 1449 1450 1452 1454 1455 1457 1459 1460 1461 1463 1465 1466 1468 1468 1469 1470 1472 1474 1475 1476 1478 1479 1480 1481 1482 1483 1484 1484 1484 1484 1485 1486 1486 1485 1485 1485 1484
1438 1439 1440 1441 1442 1444 1445 1446 1448 1449 1451 1452 1454 1456 1457 1458 1460 1462 1463 1464 1465 1466 1468 1469 1470 1471 1473 1474 1475 1476 1477 1477 1479 1479 1480 1480 1481 1481 1481 1481 1480 1480 1479
1435 1436 1437 1437 1439 1440 1441 1443 1444 1446 1447 1448 1450 1451 1453 1454 1456 1457 1459 1460 1461 1462 1463 1464 1465 1467 1468 1469 1471 1471 1472 1473 1474 1474 1475 1475 1476 1476 1476 1476 1475 1474 1473
1433 1434 1434 1435 1436 1437 1438 1440 1441 1442 1443 1445 1446 1448 1449 1450 1452 1453 1454 1456 1456 1457 1458 1459 1461 1462 1463 1465 1466 1467 1467 1468 1469 1469 1470 1470 1471 1471 1471 1471 1470 1469 1468
1432 1432 1433 1433 1434 1435 1436 1437 1438 1439 1440 1441 1443 1444 1445 1446 1448 1449 1450 1451 1453 1453 1453 1455 1457 1458 1459 1460 1462 1462 1463 1464 1464 1464 1465 1465 1466 1466 1466 1465 1465 1465 1464
1430 1431 1431 1432 1432 1433 1433 1434 1435 1436 1437 1438 1439 1440 1441 1443 1444 1445 1446 1448 1449 1449 1450 1451 1452 1453 1454 1456 1457 1458 1459 1459 1459 1460 1460 1461 1461 1461 1461 1460 1460 1460 1459
1429 1429 1430 1430 1430 1431 1432 1432 1433 1434 1435 1435 1436 1437 1438 1439 1441 1442 1443 1444 1445 1446 1446 1447 1448 1449 1450 1451 1452 1453 1454 1455 1455 1455 1455 1456 1456 1456 1456 1456 1455 1454 1454
1428 1428 1428 1428 1429 1429 1430 1430 1431 1432 1432 1433 1433 1434 1435 1436 1437 1438 1439 1440 1441 1442 1443 1444 1444 1445 1446 1447 1448 1449 1449 1450 1450 1451 1451 1451 1452 1452 1451 1451 1450 1450 1449
1427 1427 1427 1427 1427 1427 1428 1428 1429 1430 1430 1431 1431 1431 1432 1433 1434 1435 1435 1436 1438 1439 1439 1440 1440 1441 1442 1443 1444 1444 1445 1445 1446 1446 1447 1447 1447 1447 1447 1446 1446 1445 1444
1426 1426 1426 1426 1426 1426 1426 1426 1427 1427 1428 1428 1428 1429 1430 1431 1431 1432 1433 1434 1435 1435 1436 1436 1437 1438 1438 1439 1439 1440 1441 1441 1441 1442 1442 1442 1442 1442 1442 1442 1441 1441 1440
1425 1425 1425 1425 1425 1425 1424 1424 1424 1425 1425 1426 1426 1427 1428 1428 1429 1429 1430 1431 1432 1432 1433 1433 1434 1435 1435 1435 1436 1436 1437 1437 1438 1438 1438 1438 1438 1438 1438 1437 1437 1436 1435
1424 1424 1423 1423 1423 1423 1423 1423 1423 1423 1423 1423 1424 1424 1425 1425 1426 1427 1428 1428 1429 1429 1430 1430 1431 1431 1432 1432 1432 1433 1433 1433 1434 1433 1434 1434 1434 1434 1434 1433 1432 1432 1431
1422 1422 1422 1421 1421 1421 1421 1421 1421 1421 1421 1421 1421 1422 1422 1423 1424 1424 1425 1425 1425 1426 1427 1427 1427 1428 1428 1429 1429 1429 1430 1430 1430 1430 1430 1430 1430 1430 1429 1429 1428 1427 1427
1421 1420 1420 1420 1420 1419 1419 1419 1419 1419 1419 1419 1419 1420 1420 1421 1421 1421 1422 1422 1423 1423 1423 1424 1424 1424 1425 1425 1425 1425 1426 1426 1426 1426 1426 1426 1426 1426 1425 1424 1424 1423 1422
1419 1419 1418 1418 1418 1418 1418 1417 1417 1417 1417 1417 1417 1418 1418 1418 1418 1419 1419 1419 1420 1420 1420 1420 1421 1421 1421 1421 1421 1421 1421 1421 1421 1421 1421 1421 1421 1421 1420 1420 1419 1419 1418
1418 1417 1417 1416 1416 1416 1416 1416 1416 1416 1415 1415 1415 1415 1416 1416 1416 1416 1416 1416 1417 1417 1417 1417 1417 1417 1417 1417 1417 1417 1417 1417 1417 1417 1417 1417 1417 1416 1416 1415 1415 1414 1414
1416 1416 1415 1415 1414 1414 1414 1414 1414 1413 1413 1413 1413 1413 1413 1413 1413 1413 1413 1413 1413 1413 1413 1413 1413 1413 1413 1413 1413 1413 1413 1413 1413 1413 1413 1412 1412 1411 1411 1410 1410 1409 1409
1415 1414 1414 1413 1412 1412 1412 1411 1411 1411 1411 1411 1410 1410 1410 1410 1410 1410 1410 1409 1409 1409 1409 1409 1409 1409 1409 1408 1408 1408 1408 1408 1408 1408 1408 1407 1407 1406 1406 1405 1405 1405 1404
1413 1412 1412 1411 1411 1410 1410 1409 1409 1408 1408 1408 1407 1407 1407 1407 1406 1406 1406 1406 1406 1405 1405 1405 1405 1404 1404 1404 1404 1403 1403 1403 1403 1403 1403 1403 1402 1401 1401 1401 1400 1400 1399
1411 1411 1410 1409 1408 1408 1407 1406 1406 1406 1405 1405 1404 1404 1403 1403 1403 1402 1402 1402 1402 1402 1401 1401 1400 1400 1400 1399 1399 1399 1399 1398 1398 1398 1398 1398 1397 1397 1396 1396 1395 1395 1394